"Pseudo-MPEC" for MHN2334

Created 2024 Dec 17 20:31:06 UT using Find_Orb

Click here for an explanation of pseudo-MPECs

 
 Astrometry: 
     MHN2334*KC2024 11 24.15381 03 21 55.560+53 19 59.05   ~BO82 20.8 GVNEOCPW16
     MHN2334 KC2024 11 24.15891 03 21 54.686+53 19 55.38   ~BO82 20.6 GVNEOCPW16
     MHN2334 KC2024 11 24.16398 03 21 53.926+53 19 52.00   ~BO82 21.1 GVNEOCPW16
     MHN2334 KC2024 11 24.16905 03 21 53.263+53 19 47.86   ~BO82 20.5 GVNEOCPW16
     MHN2334 KC2024 11 25.07163 03 19 56.623+53 07 31.73   ~BP9H 21.3 GVNEOCPW16
     MHN2334 KC2024 11 25.10917 03 19 51.598+53 07 02.21   ~BP9H 21.5 GVNEOCPW16
     MHN2334 KC2024 11 25.14179 03 19 47.206+53 06 35.68   ~BP9H 21.0 GVNEOCPW16
     MHN2334 KC2024 11 25.16906 03 19 43.546+53 06 13.82   ~BP9H 21.6 GVNEOCPW16

Station data:
(W16) Pleasant Groves Observatory  (N34.711888 W86.231310)  US/Alabama.
   Observer M. Holbrook. 0.36-m reflector + CCD.

Orbital elements:  MHN2334
   Perihelion 2025 Apr 21.94079 +/- 196 TT = 22:34:44 (JD 2460787.44079)
Epoch 2024 Nov 25.0 TT = JDT 2460639.5   Earth MOID: 0.2670      AutoNEOCP
M 293.05104305 +/- 110              (J2000 ecliptic)
n   0.45253886 +/- 0.055            Peri.  233.62941 +/- 41
a   1.68021732 +/- 0.136            Node   289.25880 +/- 22
e   0.3004528 +/- 0.115             Incl.   18.86140 +/- 3.1
P   2.178/795.497d         H 20.02  G  0.15   U 10.9  SR
q 1.17539124 +/- 0.106    Q 2.18504340 +/- 0.319
From 8 observations 2024 Nov. 24-25 (24.4 hr); mean residual 0".56
Residuals in arcseconds: 
241124 W16  1.4+  .39-    241124 W16  .45-  .20+    241125 W16  .12+  .04+    
241124 W16  .16-  .13-    241125 W16  .56-  .80-    241125 W16  .61+  .75+    
241124 W16  .74-  .41+    241125 W16  .21-  .08-    

Ephemerides (geocentric):
Date (UTC) HH   RA             Dec           delta  r     elong  mag " sig PA
---- --------  ------------   ------------  ------ ------ -----  --- --------
2024 12 17 21  02 44 02.138   +44 27 01.07  .65323 1.5332 138.0 21.2 3593 137
2024 12 17 22  02 44 00.283   +44 25 48.44  .65321 1.5330 138.0 21.2 3604 137
2024 12 17 23  02 43 58.436   +44 24 35.79  .65318 1.5328 138.0 21.2 3616 137
2024 12 18 00  02 43 56.597   +44 23 23.11  .65316 1.5327 137.9 21.2 3627 137
2024 12 18 01  02 43 54.768   +44 22 10.40  .65314 1.5325 137.9 21.2 3639 137
2024 12 18 02  02 43 52.946   +44 20 57.66  .65313 1.5323 137.9 21.2 3650 137
2024 12 18 03  02 43 51.133   +44 19 44.90  .65311 1.5321 137.8 21.2 3662 137
2024 12 18 04  02 43 49.329   +44 18 32.10  .65309 1.5320 137.8 21.2 3673 137
2024 12 18 05  02 43 47.533   +44 17 19.29  .65307 1.5318 137.8 21.2 3685 137
2024 12 18 06  02 43 45.746   +44 16 06.44  .65305 1.5316 137.7 21.2 3696 137
2024 12 18 07  02 43 43.967   +44 14 53.57  .65303 1.5314 137.7 21.2 3708 137
2024 12 18 08  02 43 42.197   +44 13 40.67  .65301 1.5313 137.7 21.2 3720 137
2024 12 18 09  02 43 40.435   +44 12 27.75  .65300 1.5311 137.7 21.2 3731 137
2024 12 18 10  02 43 38.682   +44 11 14.80  .65298 1.5309 137.6 21.2 3743 137
2024 12 18 11  02 43 36.937   +44 10 01.82  .65296 1.5307 137.6 21.2 3755 137
2024 12 18 12  02 43 35.201   +44 08 48.82  .65295 1.5306 137.6 21.2 3766 137
2024 12 18 13  02 43 33.473   +44 07 35.79  .65293 1.5304 137.5 21.2 3778 137
2024 12 18 14  02 43 31.754   +44 06 22.74  .65291 1.5302 137.5 21.2 3790 137
2024 12 18 15  02 43 30.044   +44 05 09.66  .65290 1.5300 137.5 21.2 3801 137
2024 12 18 16  02 43 28.341   +44 03 56.56  .65288 1.5299 137.4 21.2 3813 137
2024 12 18 17  02 43 26.648   +44 02 43.43  .65287 1.5297 137.4 21.2 3825 137
2024 12 18 18  02 43 24.963   +44 01 30.27  .65285 1.5295 137.4 21.2 3836 137
2024 12 18 19  02 43 23.286   +44 00 17.10  .65284 1.5294 137.3 21.2 3848 137
2024 12 18 20  02 43 21.618   +43 59 03.89  .65282 1.5292 137.3 21.2 3860 137
2024 12 18 21  02 43 19.958   +43 57 50.67  .65281 1.5290 137.3 21.2 3871 137
2024 12 18 22  02 43 18.307   +43 56 37.42  .65279 1.5288 137.2 21.2 3883 137
2024 12 18 23  02 43 16.665   +43 55 24.14  .65278 1.5287 137.2 21.2 3895 137
2024 12 19 00  02 43 15.031   +43 54 10.84  .65277 1.5285 137.2 21.2 3907 137
2024 12 19 01  02 43 13.405   +43 52 57.52  .65275 1.5283 137.1 21.2 3919 137
2024 12 19 02  02 43 11.788   +43 51 44.17  .65274 1.5281 137.1 21.2 3930 137
2024 12 19 03  02 43 10.179   +43 50 30.80  .65273 1.5280 137.1 21.2 3942 137
2024 12 19 04  02 43 08.579   +43 49 17.41  .65272 1.5278 137.0 21.2 3954 137
2024 12 19 05  02 43 06.988   +43 48 03.99  .65271 1.5276 137.0 21.2 3966 137
2024 12 19 06  02 43 05.405   +43 46 50.56  .65269 1.5274 137.0 21.2 3978 137
2024 12 19 07  02 43 03.830   +43 45 37.09  .65268 1.5273 137.0 21.2 3989 137
2024 12 19 08  02 43 02.264   +43 44 23.61  .65267 1.5271 136.9 21.2 4001 137
2024 12 19 09  02 43 00.707   +43 43 10.10  .65266 1.5269 136.9 21.2 4013 137
2024 12 19 10  02 42 59.157   +43 41 56.58  .65265 1.5267 136.9 21.2 4025 137
2024 12 19 11  02 42 57.617   +43 40 43.02  .65264 1.5266 136.8 21.2 4037 138
2024 12 19 12  02 42 56.085   +43 39 29.45  .65263 1.5264 136.8 21.2 4049 138
2024 12 19 13  02 42 54.561   +43 38 15.86  .65262 1.5262 136.8 21.2 4061 138
2024 12 19 14  02 42 53.046   +43 37 02.24  .65261 1.5260 136.7 21.2 4073 138
2024 12 19 15  02 42 51.539   +43 35 48.60  .65260 1.5259 136.7 21.2 4084 138
2024 12 19 16  02 42 50.041   +43 34 34.95  .65259 1.5257 136.7 21.2 4096 138
2024 12 19 17  02 42 48.551   +43 33 21.27  .65258 1.5255 136.6 21.2 4108 138
2024 12 19 18  02 42 47.070   +43 32 07.56  .65258 1.5253 136.6 21.2 4120 138
2024 12 19 19  02 42 45.598   +43 30 53.84  .65257 1.5252 136.6 21.2 4132 138
2024 12 19 20  02 42 44.133   +43 29 40.10  .65256 1.5250 136.5 21.2 4144 138